Weather History for Thermal, CA

Change the Weather History Date:

Monday, January 21, 2013

  Actual Average Record
Temperature  
Mean Temperature 60 °F 55 °F  
Max Temperature 82 °F 72 °F 86 °F (1975)
Min Temperature 37 °F 38 °F 25 °F (1987)
Degree Days  
Heating Degree Days 5 10  
Month to date heating degree days 309 225  
Since 1 July heating degree days 747 763  
Cooling Degree Days 0 0  
Month to date cooling degree days 0 0  
Year to date cooling degree days 0 0  
Growing Degree Days 12 (Base 50)    
Moisture  
Dew Point 12 °F    
Average Humidity 16    
Maximum Humidity 27    
Minimum Humidity 4    
Precipitation  
Precipitation 0.00 in 0.02 in 1.15 in (2010)
Month to date precipitation T 0.47  
Year to date precipitation T 0.47  
Since 1 July precipitation 2.18 1.85  
Snow  
Snow 0.00 in - - ()
Month to date snowfall 0.0  
Year to date snowfall 0.0  
Since 1 July snowfall 0.0  
Snow Depth 0.00 in    
Sea Level Pressure  
Sea Level Pressure 30.07 in    
Wind  
Wind Speed 7 mph (NNW)    
Max Wind Speed 13 mph    
Max Gust Speed 16 mph    
Visibility 10 miles    
Events      
T = Trace of Precipitation, MM = Missing Value Source: NWS Daily Summary

Daily Weather History Graph

Daily Weather History Graph

Search for Another Location

Airport:

Trip Planner

Search our weather history database for the weather conditions in past years. The results will help you decide how hot, cold, wet, or windy it might be!

Date:

Astronomy

Jan. 21, 2013 Rise Set
Actual Time 6:46 AM PST 5:05 PM PST
Civil Twilight 6:20 AM PST 5:32 PM PST
Nautical Twilight 5:50 AM PST 6:02 PM PST
Astronomical Twilight 5:20 AM PST 6:32 PM PST
Moon 12:49 PM PST 2:18 AM PST
Length of Visible Light 11h 11m
Length of Day
10h 18m
Waxing Gibbous, 76% of the Moon is Illuminated
Jan 21
Waxing Gibbous
Jan 26
Full
Feb 3
Last Quarter
Feb 9
New
Feb 17
First Quarter

Hourly Weather History & Observations

Time (PST) Temp. Windchill Dew Point Humidity Pressure Visibility Wind Dir Wind Speed Gust Speed Precip Events Conditions
12:52 AM 51.1 °F - 9.0 °F 18% 30.07 in 10.0 mi North 6.9 mph - N/A   Clear
1:52 AM 50.0 °F - 10.9 °F 21% 30.06 in 10.0 mi North 8.1 mph - N/A   Clear
2:52 AM 46.0 °F 43.9 °F 10.9 °F 24% 30.05 in 10.0 mi North 4.6 mph - N/A   Clear
3:52 AM 48.9 °F - 10.0 °F 21% 30.05 in 10.0 mi North 8.1 mph - N/A   Clear
4:52 AM 44.1 °F 40.8 °F 12.0 °F 27% 30.05 in 10.0 mi North 5.8 mph - N/A   Clear
5:52 AM 48.0 °F - 10.9 °F 22% 30.05 in 10.0 mi North 6.9 mph - N/A   Clear
6:52 AM 51.1 °F - 12.0 °F 21% 30.07 in 10.0 mi NNW 6.9 mph - N/A   Clear
7:52 AM 55.9 °F - 12.9 °F 18% 30.09 in 10.0 mi NNE 8.1 mph - N/A   Clear
8:52 AM 68.0 °F - 16.0 °F 14% 30.11 in 10.0 mi NNE 5.8 mph - N/A   Clear
9:52 AM 73.9 °F - 15.1 °F 11% 30.13 in 10.0 mi North 4.6 mph - N/A   Clear
10:52 AM 77.0 °F - 8.1 °F 7% 30.12 in 10.0 mi NW 8.1 mph - N/A   Clear
11:52 AM 80.1 °F - 5.0 °F 6% 30.09 in 10.0 mi NNW 8.1 mph - N/A   Clear
12:52 PM 80.1 °F - 3.0 °F 5% 30.06 in 10.0 mi WNW 6.9 mph - N/A   Clear
1:52 PM 81.0 °F - 1.0 °F 5% 30.04 in 10.0 mi NNW 5.8 mph - N/A   Clear
2:52 PM 81.0 °F - -0.0 °F 4% 30.03 in 10.0 mi West 4.6 mph - N/A   Clear
3:52 PM 81.0 °F - 3.0 °F 5% 30.02 in 10.0 mi SW 3.5 mph - N/A   Clear
4:52 PM 69.1 °F - 27.0 °F 21% 30.02 in 10.0 mi SE 4.6 mph - N/A   Clear
5:52 PM 55.0 °F - 25.0 °F 31% 30.03 in 10.0 mi ESE 6.9 mph - N/A   Clear
6:52 PM 54.0 °F - 26.1 °F 34% 30.04 in 10.0 mi Calm Calm - N/A   Clear
8:52 PM 42.1 °F 40.2 °F 21.9 °F 45% 30.07 in 10.0 mi NNE 3.5 mph - N/A   Clear
9:52 PM 52.0 °F - 15.1 °F 23% 30.09 in 10.0 mi NNW 4.6 mph - N/A   Clear
10:52 PM 45.0 °F 41.8 °F 18.0 °F 34% 30.09 in 10.0 mi WNW 5.8 mph - N/A   Clear
11:52 PM 46.9 °F - 14.0 °F 27% 30.09 in 10.0 mi NNW 4.6 mph - N/A   Clear